QPF
0.00 0.00 0.00 0.00 0.00 0.00 0.00 0.00 0.00 0.00 0.00 0.00 0.00 0.00 0.00 0.00 0.00 0.00 0.00 0.00 0.00 0.00 0.00 0.00 0.00 0.00 0.01 0.01 0.01 0.00 0.01 0.02 0.05 0.08 0.08 0.12 0.18 0.20 0.21 0.20 0.21 0.21 0.23 0.23
0.00 0.00 0.00 0.00 0.00 0.00 0.00 0.00 0.00 0.00 0.00 0.00 0.00 0.00 0.00 0.00 0.00 0.00 0.00 0.00 0.00 0.00 0.00 0.00 0.00 0.00 0.01 0.02 0.01 0.02 0.03 0.06 0.13 0.22 0.28 0.35 0.38 0.38 0.38 0.39 0.41 0.40 0.38 0.36
0.00 0.00 0.00 0.00 0.00 0.00 0.00 0.00 0.00 0.00 0.00 0.00 0.00 0.00 0.00 0.00 0.00 0.00 0.00 0.00 0.00 0.00 0.00 0.00 0.00 0.00 0.00 0.02 0.03 0.04 0.05 0.13 0.25 0.35 0.41 0.47 0.48 0.45 0.43 0.45 0.49 0.50 0.50 0.46
0.00 0.00 0.00 0.00 0.00 0.00 0.00 0.00 0.00 0.00 0.00 0.00 0.00 0.00 0.00 0.00 0.00 0.00 0.00 0.00 0.00 0.00 0.00 0.00 0.00 0.00 0.01 0.04 0.07 0.09 0.11 0.22 0.34 0.46 0.57 0.62 0.62 0.59 0.55 0.54 0.57 0.58 0.53 0.43
0.00 0.00 0.00 0.00 0.00 0.00 0.00 0.00 0.00 0.00 0.00 0.00 0.00 0.00 0.00 0.00 0.00 0.00 0.00 0.00 0.00 0.00 0.00 0.00 0.00 0.01 0.02 0.06 0.10 0.12 0.18 0.30 0.48 0.64 0.75 0.74 0.70 0.63 0.56 0.54 0.55 0.50 0.40 0.31
0.00 0.00 0.00 0.00 0.00 0.00 0.00 0.00 0.00 0.00 0.00 0.00 0.00 0.00 0.00 0.00 0.00 0.00 0.00 0.00 0.00 0.00 0.00 0.00 0.00 0.01 0.04 0.09 0.14 0.16 0.24 0.39 0.59 0.75 0.76 0.67 0.60 0.54 0.51 0.50 0.49 0.39 0.29 0.22
0.00 0.00 0.00 0.00 0.00 0.00 0.00 0.00 0.00 0.00 0.00 0.00 0.00 0.00 0.00 0.00 0.00 0.00 0.00 0.00 0.00 0.00 0.00 0.00 0.01 0.03 0.07 0.12 0.17 0.25 0.36 0.49 0.62 0.72 0.76 0.70 0.56 0.48 0.45 0.38 0.28 0.19 0.13 0.08
0.00 0.00 0.00 0.00 0.00 0.00 0.00 0.00 0.00 0.00 0.00 0.00 0.00 0.00 0.00 0.00 0.00 0.00 0.00 0.00 0.00 0.00 0.00 0.01 0.03 0.07 0.14 0.21 0.29 0.41 0.54 0.64 0.65 0.63 0.59 0.51 0.42 0.35 0.27 0.18 0.13 0.08 0.05 0.03
0.00 0.00 0.00 0.00 0.00 0.00 0.00 0.00 0.00 0.00 0.00 0.00 0.00 0.00 0.00 0.00 0.01 0.01 0.00 0.01 0.01 0.01 0.01 0.03 0.06 0.12 0.19 0.28 0.39 0.48 0.56 0.60 0.56 0.48 0.40 0.33 0.29 0.23 0.17 0.12 0.07 0.04 0.02 0.01
0.00 0.00 0.00 0.00 0.00 0.00 0.00 0.00 0.00 0.00 0.00 0.00 0.00 0.00 0.00 0.01 0.01 0.01 0.01 0.01 0.01 0.02 0.03 0.05 0.08 0.12 0.15 0.20 0.24 0.27 0.30 0.33 0.33 0.30 0.27 0.24 0.18 0.13 0.09 0.05 0.03 0.02 0.01 0.01
0.00 0.00 0.00 0.00 0.00 0.00 0.00 0.00 0.00 0.00 0.00 0.00 0.00 0.00 0.00 0.01 0.02 0.01 0.01 0.02 0.02 0.03 0.04 0.05 0.06 0.08 0.11 0.15 0.19 0.22 0.24 0.25 0.22 0.19 0.14 0.09 0.06 0.05 0.04 0.03 0.02 0.02 0.01 0.01
0.00 0.00 0.00 0.00 0.00 0.00 0.00 0.00 0.00 0.00 0.00 0.00 0.00 0.00 0.00 0.01 0.01 0.01 0.02 0.03 0.03 0.03 0.03 0.04 0.03 0.04 0.05 0.07 0.08 0.09 0.09 0.09 0.09 0.06 0.04 0.04 0.04 0.03 0.03 0.02 0.01 0.01 0.00 0.00
0.00 0.00 0.00 0.00 0.00 0.00 0.00 0.00 0.00 0.00 0.00 0.00 0.00 0.00 0.01 0.01 0.01 0.01 0.02 0.03 0.03 0.03 0.02 0.02 0.02 0.02 0.02 0.02 0.02 0.02 0.02 0.02 0.02 0.02 0.02 0.02 0.02 0.01 0.01 0.00 0.00 0.00 0.00 0.00
0.00 0.00 0.00 0.00 0.00 0.00 0.00 0.00 0.00 0.00 0.00 0.00 0.00 0.00 0.01 0.02 0.02 0.02 0.02 0.02 0.02 0.02 0.01 0.01 0.01 0.01 0.01 0.01 0.01 0.00 0.00 0.00 0.01 0.01 0.01 0.00 0.00 0.00 0.00 0.00 0.00 0.00 0.00 0.00
0.00 0.00 0.00 0.00 0.00 0.00 0.00 0.00 0.00 0.00 0.00 0.00 0.00 0.01 0.02 0.03 0.02 0.03 0.03 0.02 0.02 0.01 0.01 0.01 0.01 0.01 0.00 0.00 0.00 0.00 0.00 0.00 0.00 0.00 0.00 0.00 0.00 0.00 0.01 0.01 0.01 0.00 0.00 0.00
0.00 0.00 0.00 0.00 0.00 0.00 0.00 0.00 0.00 0.00 0.00 0.00 0.01 0.02 0.04 0.04 0.03 0.03 0.03 0.03 0.02 0.01 0.01 0.00 0.00 0.00 0.00 0.00 0.00 0.00 0.00 0.00 0.00 0.00 0.01 0.01 0.02 0.02 0.01 0.01 0.00 0.00 0.00 0.00
0.00 0.00 0.00 0.00 0.00 0.01 0.01 0.01 0.01 0.01 0.01 0.02 0.03 0.02 0.04 0.05 0.05 0.05 0.06 0.05 0.04 0.03 0.02 0.01 0.01 0.01 0.00 0.00 0.00 0.00 0.01 0.01 0.02 0.02 0.03 0.03 0.03 0.02 0.01 0.00 0.00 0.00 0.00 0.00
0.00 0.00 0.00 0.00 0.00 0.01 0.01 0.01 0.02 0.02 0.03 0.04 0.04 0.04 0.06 0.08 0.07 0.06 0.05 0.05 0.04 0.02 0.01 0.01 0.01 0.00 0.00 0.01 0.01 0.02 0.03 0.03 0.04 0.04 0.04 0.03 0.02 0.01 0.01 0.00 0.00 0.00 0.00 0.00
0.00 0.00 0.00 0.00 0.01 0.01 0.01 0.01 0.01 0.02 0.02 0.03 0.04 0.03 0.04 0.04 0.04 0.03 0.03 0.03 0.02 0.01 0.01 0.00 0.00 0.00 0.01 0.02 0.02 0.04 0.05 0.05 0.04 0.03 0.02 0.02 0.01 0.01 0.01 0.00 0.00 0.00 0.00 0.00
0.00 0.01 0.01 0.01 0.01 0.01 0.01 0.00 0.01 0.01 0.01 0.02 0.02 0.02 0.03 0.03 0.03 0.02 0.01 0.01 0.01 0.00 0.00 0.00 0.00 0.01 0.01 0.02 0.02 0.03 0.03 0.03 0.02 0.01 0.01 0.01 0.00 0.00 0.00 0.00 0.00 0.00 0.00 0.00
0.00 0.00 0.01 0.01 0.01 0.01 0.01 0.01 0.01 0.01 0.01 0.02 0.02 0.02 0.01 0.01 0.01 0.00 0.00 0.00 0.00 0.00 0.00 0.00 0.00 0.01 0.01 0.02 0.01 0.01 0.01 0.01 0.01 0.00 0.00 0.00 0.00 0.00 0.00 0.00 0.00 0.00 0.00 0.00
0.01 0.01 0.01 0.01 0.02 0.02 0.01 0.01 0.01 0.01 0.01 0.03 0.02 0.01 0.00 0.00 0.00 0.00 0.00 0.00 0.00 0.00 0.00 0.00 0.00 0.01 0.01 0.01 0.01 0.01 0.00 0.00 0.00 0.00 0.00 0.00 0.00 0.00 0.00 0.00 0.00 0.00 0.00 0.00
0.00 0.01 0.01 0.01 0.02 0.02 0.01 0.01 0.01 0.01 0.02 0.01 0.01 0.00 0.00 0.00 0.00 0.00 0.00 0.00 0.00 0.00 0.00 0.00 0.00 0.01 0.01 0.00 0.00 0.00 0.00 0.00 0.00 0.00 0.00 0.00 0.00 0.00 0.00 0.00 0.00 0.00 0.00 0.00
0.00 0.00 0.00 0.00 0.01 0.01 0.01 0.01 0.01 0.01 0.01 0.01 0.00 0.00 0.00 0.00 0.00 0.00 0.00 0.00 0.00 0.00 0.00 0.00 0.00 0.00 0.00 0.00 0.00 0.00 0.00 0.00 0.00 0.00 0.00 0.00 0.00 0.00 0.00 0.00 0.00 0.00 0.00 0.00
0.00 0.00 0.00 0.00 0.00 0.01 0.01 0.01 0.01 0.01 0.00 0.01 0.01 0.00 0.00 0.00 0.00 0.00 0.00 0.00 0.00 0.00 0.00 0.00 0.00 0.00 0.00 0.00 0.00 0.00 0.00 0.00 0.00 0.00 0.00 0.00 0.00 0.00 0.00 0.00 0.00 0.00 0.00 0.00
0.00 0.00 0.00 0.00 0.00 0.00 0.00 0.00 0.01 0.01 0.01 0.01 0.01 0.01 0.01 0.02 0.01 0.01 0.00 0.00 0.00 0.00 0.00 0.00 0.00 0.00 0.00 0.00 0.00 0.00 0.00 0.00 0.00 0.00 0.00 0.00 0.00 0.00 0.00 0.00 0.00 0.00 0.00 0.00
MSLP
1012.11 1012.88 1013.44 1013.77 1013.92 1013.91 1013.82 1013.70 1013.57 1013.44 1013.30 1013.10 1012.81 1012.42 1011.92 1011.34 1010.73 1010.12 1009.58 1009.14 1008.80 1008.58 1008.45 1008.39 1008.37 1008.40 1008.47 1008.60 1008.81 1009.14 1009.60 1010.18 1010.87 1011.61 1012.38 1013.12 1013.79 1014.39 1014.91 1015.38 1015.81 1016.26 1016.73 1017.25
1012.37 1013.04 1013.49 1013.74 1013.84 1013.85 1013.84 1013.85 1013.87 1013.88 1013.85 1013.71 1013.41 1012.95 1012.33 1011.59 1010.79 1010.02 1009.33 1008.78 1008.36 1008.10 1007.95 1007.87 1007.85 1007.87 1007.93 1008.05 1008.26 1008.61 1009.10 1009.74 1010.49 1011.33 1012.18 1013.00 1013.75 1014.40 1014.96 1015.45 1015.91 1016.37 1016.87 1017.42
1012.36 1012.92 1013.28 1013.47 1013.58 1013.65 1013.76 1013.92 1014.12 1014.30 1014.39 1014.31 1014.01 1013.48 1012.74 1011.84 1010.88 1009.94 1009.12 1008.47 1007.99 1007.70 1007.54 1007.48 1007.47 1007.50 1007.57 1007.70 1007.94 1008.30 1008.83 1009.52 1010.33 1011.23 1012.15 1013.04 1013.84 1014.54 1015.13 1015.65 1016.12 1016.60 1017.11 1017.67
1012.06 1012.52 1012.81 1012.98 1013.12 1013.30 1013.56 1013.91 1014.31 1014.66 1014.88 1014.88 1014.60 1014.02 1013.18 1012.14 1011.04 1009.98 1009.05 1008.32 1007.80 1007.49 1007.35 1007.31 1007.34 1007.40 1007.50 1007.66 1007.91 1008.30 1008.85 1009.57 1010.42 1011.36 1012.32 1013.24 1014.08 1014.81 1015.43 1015.96 1016.44 1016.93 1017.44 1017.99
1011.55 1011.91 1012.14 1012.30 1012.51 1012.81 1013.25 1013.81 1014.41 1014.96 1015.32 1015.41 1015.16 1014.56 1013.66 1012.54 1011.34 1010.18 1009.18 1008.41 1007.88 1007.58 1007.46 1007.46 1007.53 1007.64 1007.77 1007.95 1008.23 1008.63 1009.19 1009.92 1010.77 1011.72 1012.68 1013.62 1014.46 1015.20 1015.82 1016.36 1016.85 1017.33 1017.84 1018.38
1010.95 1011.20 1011.36 1011.54 1011.81 1012.24 1012.86 1013.61 1014.42 1015.14 1015.66 1015.85 1015.65 1015.07 1014.15 1012.99 1011.75 1010.56 1009.54 1008.76 1008.25 1007.98 1007.90 1007.96 1008.08 1008.22 1008.39 1008.60 1008.88 1009.28 1009.83 1010.54 1011.36 1012.28 1013.22 1014.13 1014.95 1015.67 1016.29 1016.82 1017.30 1017.78 1018.28 1018.80
1010.39 1010.52 1010.61 1010.79 1011.12 1011.66 1012.43 1013.35 1014.32 1015.20 1015.84 1016.13 1016.01 1015.47 1014.58 1013.45 1012.24 1011.08 1010.09 1009.35 1008.89 1008.68 1008.66 1008.77 1008.94 1009.13 1009.33 1009.55 1009.83 1010.21 1010.73 1011.38 1012.15 1013.00 1013.88 1014.73 1015.52 1016.20 1016.79 1017.31 1017.78 1018.24 1018.73 1019.24
1009.98 1009.97 1010.00 1010.16 1010.52 1011.15 1012.01 1013.05 1014.13 1015.12 1015.85 1016.22 1016.17 1015.70 1014.89 1013.84 1012.70 1011.63 1010.74 1010.10 1009.72 1009.60 1009.65 1009.83 1010.05 1010.28 1010.49 1010.72 1010.99 1011.33 1011.79 1012.37 1013.06 1013.83 1014.63 1015.40 1016.12 1016.75 1017.31 1017.80 1018.25 1018.70 1019.17 1019.66
1009.79 1009.66 1009.61 1009.73 1010.11 1010.76 1011.66 1012.74 1013.87 1014.88 1015.66 1016.08 1016.09 1015.70 1014.99 1014.06 1013.07 1012.15 1011.40 1010.90 1010.65 1010.63 1010.78 1011.02 1011.29 1011.55 1011.79 1012.01 1012.25 1012.55 1012.94 1013.44 1014.04 1014.71 1015.41 1016.10 1016.74 1017.32 1017.83 1018.28 1018.72 1019.15 1019.59 1020.06
1009.83 1009.60 1009.48 1009.56 1009.91 1010.54 1011.42 1012.47 1013.55 1014.53 1015.28 1015.71 1015.76 1015.45 1014.86 1014.09 1013.28 1012.55 1011.99 1011.67 1011.57 1011.68 1011.93 1012.24 1012.56 1012.85 1013.10 1013.31 1013.52 1013.77 1014.10 1014.52 1015.02 1015.59 1016.20 1016.80 1017.37 1017.88 1018.35 1018.77 1019.18 1019.58 1020.00 1020.44
1010.09 1009.79 1009.63 1009.67 1009.97 1010.53 1011.33 1012.27 1013.24 1014.11 1014.78 1015.16 1015.22 1014.98 1014.51 1013.92 1013.31 1012.80 1012.47 1012.34 1012.42 1012.66 1013.02 1013.40 1013.77 1014.09 1014.34 1014.54 1014.72 1014.93 1015.20 1015.55 1015.97 1016.45 1016.97 1017.49 1018.00 1018.46 1018.88 1019.28 1019.65 1020.04 1020.42 1020.83
1010.50 1010.18 1010.00 1010.01 1010.25 1010.73 1011.40 1012.18 1012.98 1013.69 1014.23 1014.52 1014.56 1014.38 1014.03 1013.62 1013.23 1012.95 1012.84 1012.92 1013.17 1013.55 1014.00 1014.46 1014.87 1015.20 1015.46 1015.65 1015.81 1015.99 1016.21 1016.49 1016.85 1017.27 1017.72 1018.18 1018.63 1019.05 1019.44 1019.81 1020.16 1020.52 1020.88 1021.24
1011.01 1010.71 1010.54 1010.54 1010.73 1011.11 1011.63 1012.23 1012.82 1013.34 1013.71 1013.90 1013.91 1013.76 1013.53 1013.28 1013.10 1013.05 1013.16 1013.44 1013.85 1014.36 1014.90 1015.41 1015.84 1016.19 1016.44 1016.62 1016.76 1016.91 1017.10 1017.35 1017.66 1018.02 1018.43 1018.85 1019.26 1019.65 1020.03 1020.38 1020.71 1021.04 1021.37 1021.70
1011.56 1011.32 1011.20 1011.20 1011.35 1011.62 1011.99 1012.40 1012.79 1013.10 1013.31 1013.39 1013.35 1013.24 1013.11 1013.02 1013.04 1013.20 1013.51 1013.96 1014.51 1015.12 1015.72 1016.26 1016.71 1017.05 1017.29 1017.46 1017.59 1017.72 1017.88 1018.10 1018.39 1018.72 1019.10 1019.49 1019.89 1020.27 1020.63 1020.97 1021.30 1021.61 1021.92 1022.21
1012.15 1011.99 1011.92 1011.93 1012.04 1012.22 1012.45 1012.68 1012.87 1013.00 1013.06 1013.04 1012.98 1012.90 1012.87 1012.93 1013.12 1013.46 1013.94 1014.53 1015.20 1015.87 1016.51 1017.06 1017.50 1017.82 1018.04 1018.19 1018.30 1018.42 1018.57 1018.78 1019.05 1019.37 1019.73 1020.11 1020.50 1020.88 1021.24 1021.58 1021.90 1022.20 1022.49 1022.75
1012.79 1012.69 1012.66 1012.68 1012.75 1012.85 1012.95 1013.02 1013.06 1013.04 1012.98 1012.90 1012.82 1012.80 1012.87 1013.06 1013.41 1013.90 1014.51 1015.20 1015.94 1016.65 1017.29 1017.83 1018.24 1018.53 1018.72 1018.85 1018.94 1019.05 1019.19 1019.40 1019.66 1019.97 1020.33 1020.70 1021.09 1021.47 1021.83 1022.17 1022.50 1022.79 1023.06 1023.29
1013.47 1013.42 1013.40 1013.41 1013.43 1013.44 1013.44 1013.39 1013.30 1013.18 1013.05 1012.94 1012.88 1012.92 1013.09 1013.42 1013.89 1014.50 1015.21 1015.97 1016.74 1017.46 1018.08 1018.58 1018.94 1019.19 1019.35 1019.45 1019.53 1019.63 1019.77 1019.97 1020.23 1020.54 1020.89 1021.27 1021.65 1022.03 1022.40 1022.74 1023.06 1023.35 1023.60 1023.81
1014.20 1014.15 1014.11 1014.08 1014.03 1013.97 1013.87 1013.73 1013.56 1013.39 1013.23 1013.13 1013.13 1013.25 1013.52 1013.96 1014.54 1015.24 1016.01 1016.81 1017.58 1018.28 1018.86 1019.30 1019.62 1019.82 1019.94 1020.02 1020.08 1020.18 1020.32 1020.52 1020.78 1021.09 1021.44 1021.81 1022.19 1022.56 1022.93 1023.27 1023.58 1023.85 1024.08 1024.26
1014.97 1014.86 1014.76 1014.66 1014.54 1014.39 1014.22 1014.02 1013.81 1013.62 1013.47 1013.42 1013.49 1013.70 1014.08 1014.61 1015.28 1016.04 1016.86 1017.66 1018.42 1019.07 1019.60 1019.98 1020.24 1020.40 1020.49 1020.55 1020.61 1020.70 1020.84 1021.05 1021.32 1021.63 1021.97 1022.34 1022.70 1023.07 1023.42 1023.74 1024.04 1024.29 1024.50 1024.64
1015.73 1015.54 1015.35 1015.15 1014.94 1014.72 1014.48 1014.24 1014.02 1013.84 1013.75 1013.76 1013.91 1014.22 1014.69 1015.31 1016.04 1016.85 1017.68 1018.47 1019.19 1019.79 1020.26 1020.59 1020.80 1020.92 1020.99 1021.04 1021.10 1021.20 1021.35 1021.57 1021.84 1022.15 1022.49 1022.84 1023.20 1023.54 1023.87 1024.17 1024.43 1024.66 1024.83 1024.94
1016.44 1016.14 1015.84 1015.55 1015.25 1014.96 1014.68 1014.42 1014.21 1014.07 1014.03 1014.12 1014.36 1014.76 1015.31 1016.00 1016.77 1017.60 1018.41 1019.18 1019.85 1020.40 1020.81 1021.10 1021.27 1021.36 1021.42 1021.47 1021.54 1021.65 1021.83 1022.06 1022.34 1022.65 1022.98 1023.32 1023.66 1023.98 1024.28 1024.54 1024.77 1024.96 1025.09 1025.16
1017.04 1016.65 1016.25 1015.87 1015.50 1015.16 1014.85 1014.59 1014.40 1014.31 1014.34 1014.50 1014.82 1015.29 1015.90 1016.62 1017.42 1018.24 1019.03 1019.76 1020.38 1020.88 1021.25 1021.49 1021.64 1021.72 1021.77 1021.83 1021.92 1022.05 1022.25 1022.49 1022.78 1023.10 1023.43 1023.76 1024.07 1024.36 1024.63 1024.86 1025.05 1025.19 1025.28 1025.31
1017.51 1017.04 1016.58 1016.13 1015.72 1015.35 1015.04 1014.79 1014.64 1014.59 1014.68 1014.90 1015.28 1015.80 1016.44 1017.17 1017.96 1018.76 1019.52 1020.20 1020.78 1021.23 1021.56 1021.77 1021.90 1021.98 1022.04 1022.11 1022.22 1022.37 1022.59 1022.85 1023.15 1023.47 1023.79 1024.11 1024.41 1024.67 1024.90 1025.10 1025.25 1025.35 1025.40 1025.39
1017.82 1017.32 1016.83 1016.36 1015.94 1015.57 1015.27 1015.06 1014.94 1014.94 1015.07 1015.34 1015.75 1016.28 1016.93 1017.66 1018.42 1019.18 1019.90 1020.53 1021.06 1021.47 1021.77 1021.96 1022.08 1022.16 1022.23 1022.31 1022.43 1022.60 1022.83 1023.10 1023.40 1023.72 1024.05 1024.35 1024.63 1024.88 1025.08 1025.25 1025.36 1025.43 1025.45 1025.41
1017.99 1017.50 1017.03 1016.58 1016.18 1015.84 1015.58 1015.40 1015.33 1015.36 1015.52 1015.81 1016.23 1016.76 1017.38 1018.08 1018.80 1019.52 1020.18 1020.77 1021.25 1021.63 1021.90 1022.08 1022.20 1022.28 1022.35 1022.44 1022.57 1022.75 1022.97 1023.24 1023.54 1023.86 1024.17 1024.47 1024.73 1024.96 1025.15 1025.29 1025.38 1025.43 1025.42 1025.35
1018.04 1017.60 1017.18 1016.80 1016.46 1016.18 1015.97 1015.84 1015.80 1015.86 1016.04 1016.32 1016.72 1017.23 1017.82 1018.46 1019.13 1019.79 1020.41 1020.95 1021.40 1021.76 1022.01 1022.18 1022.29 1022.37 1022.44 1022.52 1022.65 1022.81 1023.03 1023.28 1023.57 1023.87 1024.17 1024.45 1024.71 1024.92 1025.10 1025.23 1025.30 1025.33 1025.31 1025.23
Thickness
5695 5686 5683 5691 5701 5706 5710 5710 5711 5721 5737 5738 5738 5742 5757 5767 5768 5768 5771 5775 5780 5790 5801 5798 5796 5794 5790 5785 5780 5773 5766 5760 5753 5744 5736 5727 5719 5712 5705 5701 5697 5693 5687 5682
5678 5679 5693 5701 5700 5702 5702 5702 5707 5719 5732 5735 5732 5735 5753 5764 5765 5769 5772 5773 5779 5786 5788 5790 5791 5790 5788 5784 5778 5771 5764 5757 5750 5742 5732 5721 5709 5700 5694 5689 5685 5681 5676 5672
5675 5688 5699 5696 5694 5692 5694 5696 5704 5708 5715 5721 5722 5720 5740 5760 5763 5766 5769 5773 5776 5781 5785 5787 5787 5787 5784 5781 5777 5770 5762 5753 5744 5735 5723 5711 5699 5689 5680 5677 5674 5670 5666 5662
5675 5689 5694 5691 5691 5691 5685 5701 5702 5703 5696 5688 5703 5686 5721 5742 5746 5757 5760 5761 5767 5776 5782 5784 5783 5781 5779 5777 5772 5764 5754 5744 5735 5726 5717 5707 5696 5682 5673 5668 5664 5659 5656 5652
5674 5686 5686 5685 5692 5693 5694 5703 5699 5697 5690 5682 5687 5682 5701 5724 5733 5745 5750 5752 5758 5767 5774 5777 5776 5773 5769 5766 5760 5753 5742 5732 5723 5714 5705 5695 5686 5676 5665 5658 5653 5649 5645 5641
5680 5692 5692 5693 5701 5699 5698 5693 5682 5671 5668 5665 5682 5675 5688 5705 5718 5729 5738 5743 5749 5757 5762 5762 5761 5760 5756 5752 5746 5739 5729 5719 5710 5701 5693 5684 5676 5665 5657 5650 5644 5639 5634 5630
5672 5682 5692 5698 5693 5694 5688 5667 5649 5654 5646 5656 5685 5681 5685 5708 5717 5720 5724 5731 5739 5745 5747 5747 5745 5743 5740 5736 5731 5724 5717 5706 5698 5689 5679 5672 5665 5655 5648 5641 5635 5629 5625 5620
5652 5656 5682 5692 5689 5681 5678 5669 5649 5644 5647 5659 5678 5674 5688 5707 5714 5717 5720 5724 5729 5732 5733 5732 5730 5727 5723 5719 5714 5709 5702 5694 5687 5681 5670 5659 5650 5644 5638 5631 5626 5621 5617 5611
5648 5656 5686 5696 5702 5693 5677 5669 5679 5659 5657 5655 5662 5676 5688 5701 5706 5709 5710 5713 5715 5717 5717 5715 5712 5709 5706 5702 5698 5695 5688 5681 5675 5668 5659 5649 5640 5633 5627 5621 5616 5611 5605 5601
5660 5657 5679 5695 5697 5695 5691 5679 5658 5650 5641 5643 5662 5667 5669 5683 5691 5697 5698 5700 5701 5702 5701 5699 5696 5693 5689 5686 5682 5677 5671 5666 5659 5652 5644 5636 5629 5623 5618 5612 5604 5598 5593 5587
5664 5657 5667 5678 5679 5678 5677 5673 5664 5652 5655 5647 5645 5656 5675 5680 5687 5688 5687 5687 5687 5686 5685 5682 5679 5676 5673 5670 5666 5661 5656 5650 5643 5635 5629 5622 5616 5610 5604 5598 5591 5585 5579 5573
5657 5652 5650 5666 5680 5686 5681 5674 5662 5655 5652 5652 5650 5652 5675 5680 5682 5681 5677 5675 5673 5671 5669 5667 5664 5661 5658 5654 5649 5645 5639 5634 5627 5620 5614 5608 5602 5596 5589 5582 5576 5569 5563 5557
5650 5645 5641 5648 5656 5665 5670 5671 5664 5656 5647 5642 5643 5650 5670 5674 5672 5670 5666 5661 5658 5656 5653 5650 5647 5644 5641 5637 5633 5629 5624 5618 5613 5607 5600 5593 5586 5580 5573 5566 5560 5554 5548 5542
5646 5633 5632 5631 5636 5648 5654 5660 5663 5658 5644 5643 5647 5649 5656 5660 5659 5655 5652 5647 5644 5641 5638 5634 5630 5626 5623 5620 5616 5612 5607 5603 5598 5592 5585 5578 5570 5563 5557 5550 5545 5539 5533 5526
5633 5624 5630 5634 5641 5644 5642 5643 5651 5652 5650 5644 5645 5645 5646 5648 5647 5643 5639 5634 5630 5627 5623 5618 5613 5608 5605 5602 5598 5595 5591 5587 5582 5576 5569 5561 5554 5548 5541 5535 5528 5522 5516 5510
5613 5614 5620 5622 5630 5632 5630 5632 5636 5638 5640 5641 5639 5636 5638 5637 5637 5631 5626 5623 5618 5614 5609 5603 5598 5593 5589 5586 5582 5578 5575 5570 5565 5558 5551 5544 5538 5531 5524 5517 5511 5505 5499 5492
5595 5600 5600 5600 5610 5613 5607 5616 5619 5621 5623 5628 5628 5627 5626 5624 5621 5616 5614 5612 5607 5602 5595 5588 5582 5576 5572 5569 5566 5562 5557 5553 5548 5541 5534 5528 5521 5514 5508 5501 5494 5487 5481 5475
5586 5586 5582 5586 5593 5582 5597 5612 5613 5610 5610 5615 5616 5614 5612 5608 5601 5596 5596 5597 5593 5586 5579 5572 5565 5560 5556 5552 5549 5544 5540 5536 5530 5523 5517 5511 5505 5497 5490 5484 5477 5470 5464 5459
5577 5576 5572 5571 5577 5581 5591 5599 5599 5597 5596 5601 5601 5598 5595 5593 5592 5584 5578 5578 5574 5568 5562 5556 5550 5545 5540 5536 5532 5528 5523 5518 5513 5507 5501 5495 5488 5481 5474 5467 5461 5455 5449 5444
5568 5566 5563 5562 5566 5565 5579 5590 5595 5590 5583 5592 5589 5586 5584 5584 5580 5573 5563 5560 5555 5551 5545 5540 5535 5530 5525 5519 5516 5511 5506 5501 5495 5490 5485 5479 5472 5466 5459 5452 5446 5440 5436 5431
5553 5552 5552 5553 5557 5562 5572 5579 5583 5571 5574 5583 5579 5576 5572 5569 5562 5553 5547 5542 5538 5533 5529 5524 5520 5514 5509 5504 5500 5495 5490 5485 5480 5475 5469 5463 5456 5450 5444 5437 5431 5426 5421 5417
5543 5542 5543 5543 5547 5551 5562 5568 5565 5565 5570 5571 5568 5565 5559 5550 5542 5537 5533 5528 5523 5519 5514 5510 5505 5499 5494 5490 5486 5481 5476 5471 5466 5461 5455 5449 5442 5437 5430 5423 5417 5412 5408 5404
5538 5537 5536 5539 5540 5547 5550 5553 5556 5558 5559 5559 5556 5551 5545 5537 5531 5526 5521 5516 5511 5506 5502 5497 5493 5488 5483 5478 5474 5469 5464 5459 5454 5448 5441 5435 5429 5422 5416 5411 5405 5400 5395 5391
5536 5537 5536 5539 5544 5546 5547 5547 5548 5549 5550 5549 5546 5540 5534 5528 5521 5515 5510 5504 5499 5495 5490 5486 5482 5477 5471 5468 5464 5459 5455 5450 5443 5436 5428 5422 5415 5409 5404 5399 5394 5389 5385 5382
5532 5533 5532 5534 5538 5540 5542 5539 5538 5539 5539 5537 5534 5529 5523 5518 5511 5505 5499 5493 5489 5484 5480 5476 5471 5466 5462 5459 5455 5451 5445 5439 5432 5424 5417 5410 5404 5398 5393 5388 5384 5381 5378 5374
5523 5526 5527 5526 5527 5526 5528 5528 5529 5530 5529 5527 5523 5516 5511 5508 5502 5496 5489 5484 5480 5475 5471 5467 5463 5459 5455 5451 5446 5441 5435 5429 5421 5413 5406 5400 5394 5389 5384 5380 5377 5375 5372 5369